Time,TemperatureF,DewpointF,PressureIn,WindDirection,WindDirectionDegrees,WindSpeedMPH,WindSpeedGustMPH,Humidity,HourlyPrecipIn,Conditions,Clouds,dailyrainin,SoftwareType,DateUTC
2013-02-18 00:01:00,43.4,33.2,29.60,SSE,161,3.0,3.0,67,0.00,,,0.00,Wunderground v.1.15,2013-02-18 06:01:00,
2013-02-18 00:06:00,43.3,33.4,29.60,SSE,158,3.0,4.0,68,0.00,,,0.00,Wunderground v.1.15,2013-02-18 06:06:00,
2013-02-18 00:11:00,43.0,33.2,29.60,SSE,157,3.0,3.0,68,0.00,,,0.00,Wunderground v.1.15,2013-02-18 06:11:00,
2013-02-18 00:16:00,42.9,33.1,29.60,SSE,164,2.0,5.0,68,0.00,,,0.00,Wunderground v.1.15,2013-02-18 06:16:00,
2013-02-18 00:22:00,42.9,33.1,29.60,South,169,3.0,3.0,68,0.00,,,0.00,Wunderground v.1.15,2013-02-18 06:22:00,
2013-02-18 00:27:00,42.8,33.0,29.60,South,171,0.0,4.0,68,0.00,,,0.00,weatherlink.com 1.10,2013-02-18 06:27:00,
2013-02-18 00:33:00,42.7,32.9,29.60,South,189,2.0,3.0,68,0.00,,,0.00,Wunderground v.1.15,2013-02-18 06:33:00,
2013-02-18 00:39:00,42.5,33.0,29.59,South,185,2.0,3.0,69,0.00,,,0.00,Wunderground v.1.15,2013-02-18 06:39:00,
2013-02-18 00:45:00,42.2,32.8,29.59,South,185,2.0,3.0,69,0.00,,,0.00,Wunderground v.1.15,2013-02-18 06:45:00,
2013-02-18 00:51:00,42.0,32.6,29.59,South,185,0.0,1.0,69,0.00,,,0.00,Wunderground v.1.15,2013-02-18 06:51:00,
2013-02-18 00:57:00,41.9,33.0,29.59,South,184,0.0,0.0,70,0.00,,,0.00,weatherlink.com 1.10,2013-02-18 06:57:00,
2013-02-18 01:03:00,41.7,32.6,29.59,South,185,0.0,0.0,70,0.00,,,0.00,Wunderground v.1.15,2013-02-18 07:03:00,
2013-02-18 01:09:00,41.0,32.0,29.60,NNW,327,2.0,8.0,70,0.00,,,0.00,Wunderground v.1.15,2013-02-18 07:09:00,
2013-02-18 01:20:00,39.6,31.3,29.63,NNW,330,10.0,12.0,72,0.00,,,0.00,Wunderground v.1.15,2013-02-18 07:20:00,
2013-02-18 01:25:00,39.2,31.9,29.63,North,355,11.0,12.0,75,0.00,,,0.00,Wunderground v.1.15,2013-02-18 07:25:00,
2013-02-18 01:31:00,39.1,32.2,29.63,NNW,328,8.0,8.0,76,0.00,,,0.00,Wunderground v.1.15,2013-02-18 07:31:00,
2013-02-18 01:37:00,39.0,32.1,29.62,NNW,328,6.0,8.0,76,0.00,,,0.00,Wunderground v.1.15,2013-02-18 07:37:00,
2013-02-18 01:43:00,38.4,31.0,29.61,SW,232,1.0,7.0,75,0.00,,,0.00,weatherlink.com 1.10,2013-02-18 07:43:00,
2013-02-18 01:48:00,37.7,30.8,29.61,SW,232,2.0,5.0,76,0.00,,,0.00,Wunderground v.1.15,2013-02-18 07:48:00,
2013-02-18 01:53:00,37.3,30.7,29.61,SW,232,0.0,1.0,77,0.00,,,0.00,Wunderground v.1.15,2013-02-18 07:53:00,
2013-02-18 01:58:00,37.1,30.9,29.62,SW,232,1.0,3.0,78,0.00,,,0.00,Wunderground v.1.15,2013-02-18 07:58:00,
2013-02-18 02:04:00,36.9,31.0,29.62,SW,232,1.0,2.0,79,0.00,,,0.00,Wunderground v.1.15,2013-02-18 08:04:00,
2013-02-18 02:09:00,36.8,30.6,29.62,SW,232,1.0,2.0,78,0.00,,,0.00,Wunderground v.1.15,2013-02-18 08:09:00,
2013-02-18 02:14:00,36.2,29.7,29.62,SW,232,0.0,1.0,77,0.00,,,0.00,Wunderground v.1.15,2013-02-18 08:14:00,
2013-02-18 02:20:00,35.6,29.1,29.61,SW,232,0.0,0.0,77,0.00,,,0.00,Wunderground v.1.15,2013-02-18 08:20:00,
2013-02-18 02:26:00,35.1,28.9,29.61,SW,232,0.0,0.0,78,0.00,,,0.00,Wunderground v.1.15,2013-02-18 08:26:00,
2013-02-18 02:32:00,34.8,29.6,29.61,WNW,283,1.0,4.0,81,0.00,,,0.00,Wunderground v.1.15,2013-02-18 08:32:00,
2013-02-18 02:38:00,35.6,30.6,29.62,NW,323,3.0,4.0,82,0.00,,,0.00,Wunderground v.1.15,2013-02-18 08:38:00,
2013-02-18 02:43:00,35.2,29.6,29.62,NW,323,3.0,3.0,80,0.00,,,0.00,Wunderground v.1.15,2013-02-18 08:43:00,
2013-02-18 02:49:00,33.9,28.4,29.61,NW,321,3.0,4.0,80,0.00,,,0.00,Wunderground v.1.15,2013-02-18 08:49:00,
2013-02-18 02:55:00,34.4,30.1,29.61,NW,321,3.0,4.0,84,0.00,,,0.00,Wunderground v.1.15,2013-02-18 08:55:00,
2013-02-18 03:00:00,35.9,31.8,29.61,NNW,336,4.0,6.0,85,0.00,,,0.00,Wunderground v.1.15,2013-02-18 09:00:00,
2013-02-18 03:06:00,37.6,32.6,29.62,NNW,334,5.0,8.0,82,0.00,,,0.00,Wunderground v.1.15,2013-02-18 09:06:00,
2013-02-18 03:11:00,38.0,32.4,29.62,NNW,332,4.0,5.0,80,0.00,,,0.00,Wunderground v.1.15,2013-02-18 09:11:00,
2013-02-18 03:16:00,37.8,31.6,29.62,NNW,329,3.0,5.0,78,0.00,,,0.00,Wunderground v.1.15,2013-02-18 09:16:00,
2013-02-18 03:22:00,37.1,31.2,29.62,NNW,334,4.0,7.0,79,0.00,,,0.00,Wunderground v.1.15,2013-02-18 09:22:00,
2013-02-18 03:27:00,37.1,31.0,29.62,NNW,329,5.0,9.0,79,0.00,,,0.00,weatherlink.com 1.10,2013-02-18 09:27:00,
2013-02-18 03:33:00,37.2,31.3,29.62,NW,326,6.0,6.0,79,0.00,,,0.00,Wunderground v.1.15,2013-02-18 09:33:00,
2013-02-18 03:39:00,37.2,31.3,29.61,NNW,335,5.0,7.0,79,0.00,,,0.00,Wunderground v.1.15,2013-02-18 09:39:00,
2013-02-18 03:44:00,36.9,31.0,29.61,North,355,3.0,8.0,79,0.00,,,0.00,weatherlink.com 1.10,2013-02-18 09:44:00,
2013-02-18 03:50:00,36.6,30.7,29.61,North,355,3.0,3.0,79,0.00,,,0.00,Wunderground v.1.15,2013-02-18 09:50:00,
2013-02-18 03:55:00,36.3,30.7,29.61,NNE,30,2.0,6.0,80,0.00,,,0.00,Wunderground v.1.15,2013-02-18 09:55:00,
2013-02-18 04:01:00,36.1,30.5,29.61,NNE,17,3.0,5.0,80,0.00,,,0.00,Wunderground v.1.15,2013-02-18 10:01:00,
2013-02-18 04:07:00,36.1,30.8,29.61,North,360,3.0,5.0,81,0.00,,,0.00,Wunderground v.1.15,2013-02-18 10:07:00,
2013-02-18 04:13:00,36.1,31.0,29.61,North,5,4.0,8.0,81,0.00,,,0.00,weatherlink.com 1.10,2013-02-18 10:13:00,
2013-02-18 04:18:00,36.2,30.9,29.61,North,360,4.0,7.0,81,0.00,,,0.00,Wunderground v.1.15,2013-02-18 10:18:00,
2013-02-18 04:24:00,36.3,31.0,29.62,NNE,24,4.0,5.0,81,0.00,,,0.00,Wunderground v.1.15,2013-02-18 10:24:00,
2013-02-18 04:30:00,36.4,31.1,29.62,NNW,345,4.0,4.0,81,0.00,,,0.00,Wunderground v.1.15,2013-02-18 10:30:00,
2013-02-18 04:36:00,36.5,31.2,29.62,NNW,332,4.0,6.0,81,0.00,,,0.00,Wunderground v.1.15,2013-02-18 10:36:00,
2013-02-18 04:41:00,36.6,31.3,29.63,North,360,4.0,4.0,81,0.00,,,0.00,Wunderground v.1.15,2013-02-18 10:41:00,
2013-02-18 04:47:00,36.7,31.4,29.63,North,5,4.0,5.0,81,0.00,,,0.00,Wunderground v.1.15,2013-02-18 10:47:00,
2013-02-18 04:52:00,36.8,31.5,29.63,NNW,348,4.0,6.0,81,0.00,,,0.00,Wunderground v.1.15,2013-02-18 10:52:00,
2013-02-18 04:58:00,36.7,31.0,29.63,NNW,333,5.0,9.0,81,0.00,,,0.00,weatherlink.com 1.10,2013-02-18 10:58:00,
2013-02-18 05:03:00,36.5,31.2,29.63,North,355,4.0,4.0,81,0.00,,,0.00,Wunderground v.1.15,2013-02-18 11:03:00,
2013-02-18 05:09:00,36.2,30.9,29.63,NW,315,2.0,4.0,81,0.00,,,0.00,Wunderground v.1.15,2013-02-18 11:09:00,
2013-02-18 05:14:00,36.0,31.0,29.64,NNW,329,2.0,2.0,82,0.00,,,0.00,Wunderground v.1.15,2013-02-18 11:14:00,
2013-02-18 05:20:00,36.0,31.3,29.63,NNW,330,3.0,3.0,83,0.00,,,0.00,Wunderground v.1.15,2013-02-18 11:20:00,
2013-02-18 05:26:00,36.5,31.8,29.63,North,355,4.0,8.0,83,0.00,,,0.00,Wunderground v.1.15,2013-02-18 11:26:00,
2013-02-18 05:32:00,37.1,32.1,29.63,NNW,340,5.0,11.0,82,0.00,,,0.00,Wunderground v.1.15,2013-02-18 11:32:00,
2013-02-18 05:37:00,37.4,32.4,29.63,NNE,22,6.0,11.0,82,0.00,,,0.00,Wunderground v.1.15,2013-02-18 11:37:00,
2013-02-18 05:43:00,37.5,32.0,29.63,NNW,339,7.0,16.0,81,0.00,,,0.00,weatherlink.com 1.10,2013-02-18 11:43:00,
2013-02-18 05:49:00,37.5,32.2,29.63,NNW,345,6.0,8.0,81,0.00,,,0.00,Wunderground v.1.15,2013-02-18 11:49:00,
2013-02-18 05:54:00,37.3,32.0,29.63,North,5,7.0,8.0,81,0.00,,,0.00,Wunderground v.1.15,2013-02-18 11:54:00,
2013-02-18 06:00:00,37.1,31.8,29.63,NNW,338,7.0,7.0,81,0.00,,,0.00,Wunderground v.1.15,2013-02-18 12:00:00,
2013-02-18 06:05:00,37.0,31.7,29.63,NNW,329,7.0,9.0,81,0.00,,,0.00,Wunderground v.1.15,2013-02-18 12:05:00,
2013-02-18 06:11:00,37.0,31.7,29.64,North,10,7.0,9.0,81,0.00,,,0.00,Wunderground v.1.15,2013-02-18 12:11:00,
2013-02-18 06:16:00,36.9,31.6,29.64,NNW,340,7.0,10.0,81,0.00,,,0.00,Wunderground v.1.15,2013-02-18 12:16:00,
2013-02-18 06:22:00,36.9,31.6,29.65,NNE,24,7.0,10.0,81,0.00,,,0.00,Wunderground v.1.15,2013-02-18 12:22:00,
2013-02-18 06:28:00,36.7,31.0,29.65,NNW,342,9.0,14.0,80,0.00,,,0.00,weatherlink.com 1.10,2013-02-18 12:28:00,
2013-02-18 06:33:00,36.7,31.1,29.67,NNE,29,5.0,6.0,80,0.00,,,0.00,Wunderground v.1.15,2013-02-18 12:33:00,
2013-02-18 06:38:00,36.6,31.0,29.67,North,360,4.0,6.0,80,0.00,,,0.00,Wunderground v.1.15,2013-02-18 12:38:00,
2013-02-18 06:43:00,36.5,31.0,29.67,North,360,6.0,8.0,80,0.00,,,0.00,weatherlink.com 1.10,2013-02-18 12:43:00,
2013-02-18 06:49:00,36.6,31.0,29.67,North,355,5.0,11.0,80,0.00,,,0.00,Wunderground v.1.15,2013-02-18 12:49:00,
2013-02-18 06:55:00,36.6,31.0,29.67,NNE,13,6.0,8.0,80,0.00,,,0.00,Wunderground v.1.15,2013-02-18 12:55:00,
2013-02-18 07:00:00,36.6,31.0,29.67,NNE,26,5.0,5.0,80,0.00,,,0.00,Wunderground v.1.15,2013-02-18 13:00:00,
2013-02-18 07:05:00,36.4,30.8,29.67,NNE,13,5.0,7.0,80,0.00,,,0.00,Wunderground v.1.15,2013-02-18 13:05:00,
2013-02-18 07:11:00,36.2,30.6,29.67,North,355,3.0,4.0,80,0.00,,,0.00,Wunderground v.1.15,2013-02-18 13:11:00,
2013-02-18 07:20:00,35.9,30.3,29.68,NNE,18,2.0,3.0,80,0.00,,,0.00,Wunderground v.1.15,2013-02-18 13:20:00,
2013-02-18 07:26:00,35.4,30.1,29.68,North,355,1.0,3.0,81,0.00,,,0.00,Wunderground v.1.15,2013-02-18 13:26:00,
2013-02-18 07:31:00,35.2,30.0,29.69,North,355,0.0,0.0,81,0.00,,,0.00,Wunderground v.1.15,2013-02-18 13:31:00,
2013-02-18 07:37:00,35.1,29.9,29.69,NNW,348,0.0,2.0,81,0.00,,,0.00,Wunderground v.1.15,2013-02-18 13:37:00,
2013-02-18 07:43:00,35.1,30.2,29.70,North,355,1.0,5.0,82,0.00,,,0.00,Wunderground v.1.15,2013-02-18 13:43:00,
2013-02-18 07:49:00,35.5,30.8,29.70,NNW,333,1.0,5.0,83,0.00,,,0.00,Wunderground v.1.15,2013-02-18 13:49:00,
2013-02-18 07:54:00,36.0,31.0,29.70,NNW,333,2.0,7.0,82,0.00,,,0.00,Wunderground v.1.15,2013-02-18 13:54:00,
2013-02-18 08:00:00,36.3,31.0,29.70,NNW,337,3.0,7.0,82,0.00,,,0.00,weatherlink.com 1.10,2013-02-18 14:00:00,
2013-02-18 08:06:00,36.4,31.1,29.70,NW,319,4.0,6.0,81,0.00,,,0.00,Wunderground v.1.15,2013-02-18 14:06:00,
2013-02-18 08:11:00,36.4,31.1,29.71,NW,321,4.0,4.0,81,0.00,,,0.00,Wunderground v.1.15,2013-02-18 14:11:00,
2013-02-18 08:17:00,36.4,31.1,29.71,NW,325,4.0,6.0,81,0.00,,,0.00,Wunderground v.1.15,2013-02-18 14:17:00,
2013-02-18 08:23:00,36.4,31.1,29.71,NW,313,4.0,5.0,81,0.00,,,0.00,Wunderground v.1.15,2013-02-18 14:23:00,
2013-02-18 08:28:00,36.3,31.0,29.71,NW,323,4.0,5.0,81,0.00,,,0.00,Wunderground v.1.15,2013-02-18 14:28:00,
2013-02-18 08:34:00,36.4,31.1,29.72,NNW,327,5.0,9.0,81,0.00,,,0.00,Wunderground v.1.15,2013-02-18 14:34:00,
2013-02-18 08:40:00,36.5,31.5,29.71,NW,323,6.0,7.0,82,0.00,,,0.00,Wunderground v.1.15,2013-02-18 14:40:00,
2013-02-18 08:46:00,37.0,31.7,29.72,NNW,334,7.0,15.0,81,0.00,,,0.00,Wunderground v.1.15,2013-02-18 14:46:00,
2013-02-18 08:51:00,37.3,31.7,29.72,NNW,331,8.0,13.0,80,0.00,,,0.00,Wunderground v.1.15,2013-02-18 14:51:00,
2013-02-18 08:57:00,37.3,31.4,29.73,North,355,8.0,13.0,79,0.00,,,0.00,Wunderground v.1.15,2013-02-18 14:57:00,
2013-02-18 09:03:00,37.4,31.2,29.73,NNW,348,9.0,11.0,78,0.00,,,0.00,Wunderground v.1.15,2013-02-18 15:03:00,
2013-02-18 09:09:00,37.5,31.3,29.73,NW,320,9.0,12.0,78,0.00,,,0.00,Wunderground v.1.15,2013-02-18 15:09:00,
2013-02-18 09:15:00,37.5,31.0,29.73,NNW,329,10.0,16.0,77,0.00,,,0.00,weatherlink.com 1.10,2013-02-18 15:15:00,
2013-02-18 09:20:00,37.5,30.9,29.74,NNW,348,7.0,11.0,77,0.00,,,0.00,Wunderground v.1.15,2013-02-18 15:20:00,
2013-02-18 09:25:00,37.5,30.9,29.74,NNW,335,8.0,11.0,77,0.00,,,0.00,Wunderground v.1.15,2013-02-18 15:25:00,
2013-02-18 09:30:00,37.4,30.8,29.74,NNE,25,8.0,10.0,77,0.00,,,0.00,Wunderground v.1.15,2013-02-18 15:30:00,
2013-02-18 09:35:00,37.4,30.8,29.74,NNW,346,9.0,10.0,77,0.00,,,0.00,Wunderground v.1.15,2013-02-18 15:35:00,
2013-02-18 09:41:00,37.4,31.2,29.74,NW,318,10.0,13.0,78,0.00,,,0.00,Wunderground v.1.15,2013-02-18 15:41:00,
2013-02-18 09:47:00,37.3,31.1,29.74,NNW,333,10.0,14.0,78,0.00,,,0.00,Wunderground v.1.15,2013-02-18 15:47:00,
2013-02-18 09:53:00,37.3,31.1,29.74,NNW,338,11.0,15.0,78,0.00,,,0.00,Wunderground v.1.15,2013-02-18 15:53:00,
2013-02-18 09:59:00,37.1,31.0,29.74,NNW,338,12.0,18.0,78,0.00,,,0.00,weatherlink.com 1.10,2013-02-18 15:59:00,
2013-02-18 10:05:00,36.8,30.9,29.75,North,355,10.0,17.0,79,0.00,,,0.00,Wunderground v.1.15,2013-02-18 16:05:00,
2013-02-18 10:11:00,35.3,30.4,29.76,NNW,345,11.0,20.0,82,0.00,,,0.00,Wunderground v.1.15,2013-02-18 16:11:00,
2013-02-18 10:17:00,34.0,30.3,29.77,NNW,335,12.0,20.0,86,0.00,,,0.00,Wunderground v.1.15,2013-02-18 16:17:00,
2013-02-18 10:22:00,33.1,29.7,29.77,NNW,340,12.0,12.0,87,0.00,,,0.00,Wunderground v.1.15,2013-02-18 16:22:00,
2013-02-18 10:27:00,32.8,29.9,29.77,NNW,334,12.0,19.0,89,0.00,,,0.00,Wunderground v.1.15,2013-02-18 16:27:00,
2013-02-18 10:33:00,32.4,29.5,29.77,NNW,337,14.0,18.0,89,0.00,,,0.00,Wunderground v.1.15,2013-02-18 16:33:00,
2013-02-18 10:39:00,32.1,29.5,29.78,NNW,342,12.0,18.0,90,0.00,,,0.00,Wunderground v.1.15,2013-02-18 16:39:00,
2013-02-18 10:45:00,31.9,29.3,29.78,NNW,336,11.0,17.0,90,0.00,,,0.00,Wunderground v.1.15,2013-02-18 16:45:00,
2013-02-18 10:51:00,31.7,29.1,29.79,NNW,341,12.0,18.0,90,0.00,,,0.00,Wunderground v.1.15,2013-02-18 16:51:00,
2013-02-18 10:57:00,31.6,29.0,29.79,NW,323,11.0,18.0,90,0.00,,,0.00,Wunderground v.1.15,2013-02-18 16:57:00,
2013-02-18 11:02:00,31.7,29.1,29.79,North,355,10.0,15.0,90,0.00,,,0.00,Wunderground v.1.15,2013-02-18 17:02:00,
2013-02-18 11:07:00,31.6,29.0,29.80,North,350,11.0,15.0,90,0.00,,,0.00,Wunderground v.1.15,2013-02-18 17:07:00,
2013-02-18 11:13:00,31.4,28.8,29.80,North,351,12.0,14.0,90,0.00,,,0.00,Wunderground v.1.15,2013-02-18 17:13:00,
2013-02-18 11:19:00,31.3,28.4,29.81,NNW,340,12.0,15.0,89,0.00,,,0.00,Wunderground v.1.15,2013-02-18 17:19:00,
2013-02-18 11:24:00,31.2,28.1,29.81,NE,49,11.0,15.0,88,0.00,,,0.00,Wunderground v.1.15,2013-02-18 17:24:00,
2013-02-18 11:29:00,31.2,27.8,29.82,NNW,340,11.0,22.0,87,0.00,,,0.00,Wunderground v.1.15,2013-02-18 17:29:00,
2013-02-18 11:35:00,31.1,27.4,29.82,North,355,14.0,26.0,86,0.00,,,0.00,Wunderground v.1.15,2013-02-18 17:35:00,
2013-02-18 11:40:00,31.1,26.5,29.82,NNW,333,17.0,17.0,83,0.00,,,0.00,Wunderground v.1.15,2013-02-18 17:40:00,
2013-02-18 11:45:00,31.1,27.0,29.82,NNW,327,22.0,30.0,83,0.00,,,0.00,weatherlink.com 1.10,2013-02-18 17:45:00,
2013-02-18 11:51:00,31.0,25.9,29.82,NNW,345,15.0,20.0,81,0.00,,,0.00,Wunderground v.1.15,2013-02-18 17:51:00,
2013-02-18 11:56:00,31.0,25.2,29.82,NNW,336,16.0,20.0,79,0.00,,,0.00,Wunderground v.1.15,2013-02-18 17:56:00,
2013-02-18 12:01:00,31.0,24.9,29.83,NW,323,18.0,18.0,78,0.00,,,0.00,Wunderground v.1.15,2013-02-18 18:01:00,
2013-02-18 12:07:00,30.9,24.8,29.84,NW,326,17.0,22.0,78,0.00,,,0.00,Wunderground v.1.15,2013-02-18 18:07:00,
2013-02-18 12:12:00,30.7,24.7,29.84,NNW,336,17.0,18.0,78,0.00,,,0.00,Wunderground v.1.15,2013-02-18 18:12:00,
2013-02-18 12:17:00,30.4,24.0,29.84,NNW,331,20.0,28.0,77,0.00,,,0.00,weatherlink.com 1.10,2013-02-18 18:17:00,
2013-02-18 12:23:00,30.0,24.0,29.85,NNW,330,17.0,19.0,78,0.00,,,0.00,Wunderground v.1.15,2013-02-18 18:23:00,
2013-02-18 12:28:00,29.8,23.8,29.85,NNW,335,17.0,24.0,78,0.00,,,0.00,Wunderground v.1.15,2013-02-18 18:28:00,
2013-02-18 12:34:00,29.6,23.6,29.85,NNW,331,16.0,17.0,78,0.00,,,0.00,Wunderground v.1.15,2013-02-18 18:34:00,
2013-02-18 12:40:00,29.3,23.0,29.85,NNW,329,17.0,20.0,77,0.00,,,0.00,Wunderground v.1.15,2013-02-18 18:40:00,
2013-02-18 12:45:00,29.3,23.0,29.85,NNW,340,10.0,26.0,78,0.00,,,0.00,weatherlink.com 1.10,2013-02-18 18:45:00,
2013-02-18 12:51:00,29.3,22.7,29.86,NNW,344,15.0,15.0,76,0.00,,,0.00,Wunderground v.1.15,2013-02-18 18:51:00,
2013-02-18 12:56:00,29.5,23.2,29.86,NNW,330,14.0,15.0,77,0.00,,,0.00,Wunderground v.1.15,2013-02-18 18:56:00,
2013-02-18 13:02:00,29.3,22.7,29.86,NNW,345,13.0,19.0,76,0.00,,,0.00,Wunderground v.1.15,2013-02-18 19:02:00,
2013-02-18 13:07:00,29.2,22.9,29.86,NW,308,14.0,19.0,77,0.00,,,0.00,Wunderground v.1.15,2013-02-18 19:07:00,
2013-02-18 13:13:00,29.1,22.8,29.87,NNW,331,13.0,14.0,77,0.00,,,0.00,Wunderground v.1.15,2013-02-18 19:13:00,
2013-02-18 13:19:00,29.0,22.7,29.87,NNE,13,13.0,22.0,77,0.00,,,0.00,Wunderground v.1.15,2013-02-18 19:19:00,
2013-02-18 13:25:00,28.8,22.5,29.87,NNW,328,14.0,19.0,77,0.00,,,0.00,Wunderground v.1.15,2013-02-18 19:25:00,
2013-02-18 13:31:00,28.4,22.0,29.87,NW,323,23.0,25.0,76,0.00,,,0.00,weatherlink.com 1.10,2013-02-18 19:31:00,
2013-02-18 13:36:00,28.3,22.0,29.87,North,355,16.0,19.0,77,0.00,,,0.00,Wunderground v.1.15,2013-02-18 19:36:00,
2013-02-18 13:41:00,28.3,21.4,29.88,NNW,328,15.0,20.0,75,0.00,,,0.00,Wunderground v.1.15,2013-02-18 19:41:00,
2013-02-18 13:47:00,28.5,20.6,29.88,NNW,329,16.0,20.0,72,0.00,,,0.00,Wunderground v.1.15,2013-02-18 19:47:00,
2013-02-18 13:53:00,28.8,20.9,29.88,North,360,15.0,17.0,72,0.00,,,0.00,Wunderground v.1.15,2013-02-18 19:53:00,
2013-02-18 13:58:00,29.2,21.3,29.88,NNW,333,14.0,19.0,72,0.00,,,0.00,Wunderground v.1.15,2013-02-18 19:58:00,
2013-02-18 14:04:00,29.5,21.6,29.89,NW,324,12.0,19.0,72,0.00,,,0.00,Wunderground v.1.15,2013-02-18 20:04:00,
2013-02-18 14:09:00,29.2,21.3,29.89,NW,325,14.0,21.0,72,0.00,,,0.00,Wunderground v.1.15,2013-02-18 20:09:00,
2013-02-18 14:14:00,28.7,20.8,29.89,NW,326,16.0,20.0,72,0.00,,,0.00,Wunderground v.1.15,2013-02-18 20:14:00,
2013-02-18 14:20:00,28.7,20.8,29.90,NW,311,16.0,22.0,72,0.00,,,0.00,Wunderground v.1.15,2013-02-18 20:20:00,
2013-02-18 14:26:00,28.3,20.1,29.90,NNW,335,17.0,26.0,71,0.00,,,0.00,Wunderground v.1.15,2013-02-18 20:26:00,
2013-02-18 14:32:00,28.3,20.0,29.90,NNW,331,12.0,29.0,72,0.00,,,0.00,weatherlink.com 1.10,2013-02-18 20:32:00,
2013-02-18 14:37:00,28.2,20.3,29.91,NW,321,16.0,22.0,72,0.00,,,0.00,Wunderground v.1.15,2013-02-18 20:37:00,
2013-02-18 14:42:00,28.1,19.9,29.91,NNW,339,16.0,21.0,71,0.00,,,0.00,Wunderground v.1.15,2013-02-18 20:42:00,
2013-02-18 14:49:00,28.2,20.3,29.91,NNW,333,16.0,21.0,72,0.00,,,0.00,Wunderground v.1.15,2013-02-18 20:49:00,
2013-02-18 14:55:00,29.1,21.2,29.91,North,355,14.0,18.0,72,0.00,,,0.00,Wunderground v.1.15,2013-02-18 20:55:00,
2013-02-18 15:00:00,29.0,19.4,29.91,North,355,14.0,15.0,67,0.00,,,0.00,Wunderground v.1.15,2013-02-18 21:00:00,
2013-02-18 15:05:00,28.8,19.9,29.91,NNW,336,16.0,19.0,69,0.00,,,0.00,Wunderground v.1.15,2013-02-18 21:05:00,
2013-02-18 15:11:00,28.1,18.5,29.92,NNW,342,17.0,18.0,67,0.00,,,0.00,Wunderground v.1.15,2013-02-18 21:11:00,
2013-02-18 15:16:00,28.0,18.0,29.92,NNW,338,14.0,26.0,67,0.00,,,0.00,weatherlink.com 1.10,2013-02-18 21:16:00,
2013-02-18 15:21:00,28.3,19.1,29.92,NNW,338,15.0,15.0,68,0.00,,,0.00,Wunderground v.1.15,2013-02-18 21:21:00,
2013-02-18 15:28:00,28.7,18.8,29.92,NNW,329,16.0,19.0,66,0.00,,,0.00,Wunderground v.1.15,2013-02-18 21:28:00,
2013-02-18 15:33:00,28.4,18.1,29.92,NW,325,16.0,16.0,65,0.00,,,0.00,Wunderground v.1.15,2013-02-18 21:33:00,
2013-02-18 15:38:00,29.0,18.7,29.92,NNW,327,16.0,16.0,65,0.00,,,0.00,Wunderground v.1.15,2013-02-18 21:38:00,
2013-02-18 15:43:00,29.4,19.4,29.92,NNW,327,17.0,19.0,66,0.00,,,0.00,Wunderground v.1.15,2013-02-18 21:43:00,
2013-02-18 15:48:00,29.2,18.9,29.92,North,355,17.0,21.0,65,0.00,,,0.00,Wunderground v.1.15,2013-02-18 21:48:00,
2013-02-18 15:53:00,28.8,18.5,29.92,NNW,348,18.0,25.0,65,0.00,,,0.00,Wunderground v.1.15,2013-02-18 21:53:00,
2013-02-18 15:59:00,29.4,18.7,29.92,NW,322,18.0,25.0,64,0.00,,,0.00,Wunderground v.1.15,2013-02-18 21:59:00,
2013-02-18 16:04:00,29.8,19.1,29.93,North,350,19.0,27.0,64,0.00,,,0.00,Wunderground v.1.15,2013-02-18 22:04:00,
2013-02-18 16:10:00,29.5,18.4,29.93,NNW,327,17.0,17.0,63,0.00,,,0.00,Wunderground v.1.15,2013-02-18 22:10:00,
2013-02-18 16:15:00,29.6,18.9,29.93,NNW,343,15.0,18.0,64,0.00,,,0.00,Wunderground v.1.15,2013-02-18 22:15:00,
2013-02-18 16:20:00,29.6,18.5,29.93,NW,314,16.0,21.0,63,0.00,,,0.00,Wunderground v.1.15,2013-02-18 22:20:00,
2013-02-18 16:26:00,29.5,18.4,29.93,NNW,346,18.0,21.0,63,0.00,,,0.00,Wunderground v.1.15,2013-02-18 22:26:00,
2013-02-18 16:32:00,28.8,18.0,29.94,NW,306,22.0,28.0,63,0.00,,,0.00,weatherlink.com 1.10,2013-02-18 22:32:00,
2013-02-18 16:37:00,28.6,17.6,29.93,NNW,341,17.0,28.0,63,0.00,,,0.00,Wunderground v.1.15,2013-02-18 22:37:00,
2013-02-18 16:43:00,29.0,18.3,29.94,NNW,329,16.0,23.0,64,0.00,,,0.00,Wunderground v.1.15,2013-02-18 22:43:00,
2013-02-18 16:48:00,28.8,17.8,29.94,NNW,346,16.0,29.0,63,0.00,,,0.00,Wunderground v.1.15,2013-02-18 22:48:00,
2013-02-18 16:53:00,28.6,18.0,29.95,NW,313,17.0,18.0,64,0.00,,,0.00,Wunderground v.1.15,2013-02-18 22:53:00,
2013-02-18 16:59:00,28.9,18.2,29.95,NNW,343,14.0,19.0,64,0.00,,,0.00,Wunderground v.1.15,2013-02-18 22:59:00,
2013-02-18 17:04:00,28.7,18.1,29.95,NW,322,14.0,17.0,64,0.00,,,0.00,Wunderground v.1.15,2013-02-18 23:04:00,
2013-02-18 17:11:00,28.4,18.5,29.96,North,350,13.0,13.0,66,0.00,,,0.00,Wunderground v.1.15,2013-02-18 23:11:00,
2013-02-18 17:17:00,28.7,18.8,29.96,NNW,340,12.0,15.0,66,0.00,,,0.00,Wunderground v.1.15,2013-02-18 23:17:00,
2013-02-18 17:22:00,28.2,18.3,29.96,NW,322,12.0,17.0,66,0.00,,,0.00,Wunderground v.1.15,2013-02-18 23:22:00,
2013-02-18 17:27:00,28.0,18.1,29.97,NNW,333,13.0,17.0,66,0.00,,,0.00,Wunderground v.1.15,2013-02-18 23:27:00,
2013-02-18 17:35:00,27.7,18.2,29.97,NNW,346,13.0,13.0,67,0.00,,,0.00,Wunderground v.1.15,2013-02-18 23:35:00,
2013-02-18 17:41:00,27.3,17.8,29.98,NNW,329,12.0,12.0,67,0.00,,,0.00,Wunderground v.1.15,2013-02-18 23:41:00,
2013-02-18 17:46:00,27.0,17.8,29.98,NNW,334,12.0,18.0,68,0.00,,,0.00,Wunderground v.1.15,2013-02-18 23:46:00,
2013-02-18 17:52:00,26.6,17.5,29.98,NNW,340,12.0,14.0,68,0.00,,,0.00,Wunderground v.1.15,2013-02-18 23:52:00,
2013-02-18 17:57:00,26.4,17.6,29.98,NW,322,12.0,16.0,69,0.00,,,0.00,Wunderground v.1.15,2013-02-18 23:57:00,
2013-02-18 18:02:00,26.2,17.4,29.99,NNW,334,12.0,17.0,69,0.00,,,0.00,Wunderground v.1.15,2013-02-19 00:02:00,
2013-02-18 18:08:00,26.0,17.2,29.99,NW,310,12.0,19.0,69,0.00,,,0.00,Wunderground v.1.15,2013-02-19 00:08:00,
2013-02-18 18:14:00,25.6,17.2,29.99,NNW,329,11.0,12.0,70,0.00,,,0.00,Wunderground v.1.15,2013-02-19 00:14:00,
2013-02-18 18:19:00,25.5,17.1,29.99,NNW,338,10.0,14.0,70,0.00,,,0.00,Wunderground v.1.15,2013-02-19 00:19:00,
2013-02-18 18:25:00,25.3,17.2,30.00,NNW,328,9.0,12.0,71,0.00,,,0.00,Wunderground v.1.15,2013-02-19 00:25:00,
2013-02-18 18:30:00,25.2,17.1,30.00,NW,315,9.0,10.0,71,0.00,,,0.00,Wunderground v.1.15,2013-02-19 00:30:00,
2013-02-18 18:35:00,25.1,17.0,30.00,NW,319,10.0,14.0,71,0.00,,,0.00,Wunderground v.1.15,2013-02-19 00:35:00,
2013-02-18 18:41:00,25.0,16.9,30.01,NNW,345,9.0,12.0,71,0.00,,,0.00,Wunderground v.1.15,2013-02-19 00:41:00,
2013-02-18 18:46:00,24.9,16.8,30.01,NW,316,9.0,12.0,71,0.00,,,0.00,Wunderground v.1.15,2013-02-19 00:46:00,
2013-02-18 18:52:00,24.7,16.6,30.01,NW,321,8.0,9.0,71,0.00,,,0.00,Wunderground v.1.15,2013-02-19 00:52:00,
2013-02-18 18:57:00,24.6,16.9,30.02,NNW,328,8.0,9.0,72,0.00,,,0.00,Wunderground v.1.15,2013-02-19 00:57:00,
2013-02-18 19:02:00,24.8,17.1,30.02,NNW,333,10.0,18.0,72,0.00,,,0.00,Wunderground v.1.15,2013-02-19 01:02:00,
2013-02-18 19:08:00,25.2,16.5,30.02,NNW,336,14.0,20.0,69,0.00,,,0.00,Wunderground v.1.15,2013-02-19 01:08:00,
2013-02-18 19:13:00,25.2,16.5,30.02,NW,313,14.0,21.0,69,0.00,,,0.00,Wunderground v.1.15,2013-02-19 01:13:00,
2013-02-18 19:18:00,24.9,16.2,30.02,North,355,12.0,21.0,69,0.00,,,0.00,Wunderground v.1.15,2013-02-19 01:18:00,
2013-02-18 19:23:00,24.5,15.8,30.03,NNW,341,11.0,15.0,69,0.00,,,0.00,Wunderground v.1.15,2013-02-19 01:23:00,
2013-02-18 19:29:00,23.9,15.5,30.03,NW,324,11.0,15.0,70,0.00,,,0.00,Wunderground v.1.15,2013-02-19 01:29:00,
2013-02-18 19:35:00,23.5,15.1,30.03,North,355,10.0,13.0,70,0.00,,,0.00,Wunderground v.1.15,2013-02-19 01:35:00,
2013-02-18 19:41:00,23.2,15.2,30.04,NNW,333,9.0,9.0,71,0.00,,,0.00,Wunderground v.1.15,2013-02-19 01:41:00,
2013-02-18 19:47:00,23.0,15.3,30.04,NNE,26,9.0,13.0,72,0.00,,,0.00,Wunderground v.1.15,2013-02-19 01:47:00,
2013-02-18 19:52:00,23.0,15.3,30.04,NNW,333,11.0,13.0,72,0.00,,,0.00,Wunderground v.1.15,2013-02-19 01:52:00,
2013-02-18 19:57:00,22.8,15.1,30.04,NW,325,10.0,13.0,72,0.00,,,0.00,Wunderground v.1.15,2013-02-19 01:57:00,
2013-02-18 20:02:00,22.6,15.2,30.05,NNW,342,9.0,9.0,73,0.00,,,0.00,Wunderground v.1.15,2013-02-19 02:02:00,
2013-02-18 20:08:00,22.5,15.1,30.05,NNW,342,9.0,13.0,73,0.00,,,0.00,Wunderground v.1.15,2013-02-19 02:08:00,
2013-02-18 20:13:00,22.5,15.1,30.05,NW,321,10.0,11.0,73,0.00,,,0.00,Wunderground v.1.15,2013-02-19 02:13:00,
2013-02-18 20:19:00,22.4,15.1,30.05,NNW,330,9.0,12.0,73,0.00,,,0.00,Wunderground v.1.15,2013-02-19 02:19:00,
2013-02-18 20:24:00,22.2,14.5,30.05,North,350,9.0,10.0,72,0.00,,,0.00,Wunderground v.1.15,2013-02-19 02:24:00,
2013-02-18 20:30:00,22.1,14.4,30.05,NNW,346,9.0,11.0,72,0.00,,,0.00,Wunderground v.1.15,2013-02-19 02:30:00,
2013-02-18 20:36:00,21.9,14.6,30.05,NW,321,8.0,11.0,73,0.00,,,0.00,Wunderground v.1.15,2013-02-19 02:36:00,
2013-02-18 20:42:00,21.7,14.4,30.06,NNW,333,7.0,8.0,73,0.00,,,0.00,Wunderground v.1.15,2013-02-19 02:42:00,
2013-02-18 20:47:00,21.5,14.0,30.06,NNW,346,9.0,11.0,73,0.00,,,0.00,weatherlink.com 1.10,2013-02-19 02:47:00,
2013-02-18 20:52:00,21.5,14.2,30.06,NW,321,7.0,9.0,73,0.00,,,0.00,Wunderground v.1.15,2013-02-19 02:52:00,
2013-02-18 20:58:00,21.4,14.1,30.06,NNW,337,8.0,12.0,73,0.00,,,0.00,Wunderground v.1.15,2013-02-19 02:58:00,
2013-02-18 21:03:00,21.2,14.0,30.06,NNW,344,6.0,14.0,73,0.00,,,0.00,weatherlink.com 1.10,2013-02-19 03:03:00,
2013-02-18 21:09:00,21.2,13.9,30.07,NW,325,8.0,13.0,73,0.00,,,0.00,Wunderground v.1.15,2013-02-19 03:09:00,
2013-02-18 21:14:00,21.1,13.8,30.07,NW,318,8.0,9.0,73,0.00,,,0.00,Wunderground v.1.15,2013-02-19 03:14:00,
2013-02-18 21:20:00,20.9,13.9,30.07,NNW,330,6.0,6.0,74,0.00,,,0.00,Wunderground v.1.15,2013-02-19 03:20:00,
2013-02-18 21:26:00,20.8,13.8,30.07,NW,319,7.0,8.0,74,0.00,,,0.00,Wunderground v.1.15,2013-02-19 03:26:00,
2013-02-18 21:31:00,20.8,13.8,30.08,NW,313,7.0,8.0,74,0.00,,,0.00,Wunderground v.1.15,2013-02-19 03:31:00,
2013-02-18 21:37:00,20.7,14.0,30.08,NW,325,7.0,11.0,75,0.00,,,0.00,Wunderground v.1.15,2013-02-19 03:37:00,
2013-02-18 21:43:00,20.6,13.9,30.08,NNW,337,7.0,9.0,75,0.00,,,0.00,Wunderground v.1.15,2013-02-19 03:43:00,
2013-02-18 21:48:00,20.6,14.2,30.09,NW,310,7.0,9.0,76,0.00,,,0.00,Wunderground v.1.15,2013-02-19 03:48:00,
2013-02-18 21:53:00,20.4,14.0,30.09,NNW,336,7.0,10.0,76,0.00,,,0.00,Wunderground v.1.15,2013-02-19 03:53:00,
2013-02-18 21:59:00,20.4,14.0,30.09,NW,314,7.0,10.0,76,0.00,,,0.00,Wunderground v.1.15,2013-02-19 03:59:00,
2013-02-18 22:05:00,20.6,14.2,30.09,NW,318,8.0,9.0,76,0.00,,,0.00,Wunderground v.1.15,2013-02-19 04:05:00,
2013-02-18 22:10:00,20.7,14.3,30.10,NNW,337,8.0,8.0,76,0.00,,,0.00,Wunderground v.1.15,2013-02-19 04:10:00,
2013-02-18 22:16:00,20.8,14.4,30.10,NW,313,9.0,10.0,76,0.00,,,0.00,Wunderground v.1.15,2013-02-19 04:16:00,
2013-02-18 22:21:00,21.1,15.0,30.10,NW,323,9.0,11.0,77,0.00,,,0.00,Wunderground v.1.15,2013-02-19 04:21:00,
2013-02-18 22:26:00,21.2,15.1,30.10,NNW,340,8.0,11.0,77,0.00,,,0.00,Wunderground v.1.15,2013-02-19 04:26:00,
2013-02-18 22:31:00,21.3,15.2,30.10,NW,323,7.0,8.0,77,0.00,,,0.00,Wunderground v.1.15,2013-02-19 04:31:00,
2013-02-18 22:37:00,21.5,15.1,30.10,NNW,345,8.0,13.0,76,0.00,,,0.00,Wunderground v.1.15,2013-02-19 04:37:00,
2013-02-18 22:42:00,21.6,15.2,30.11,NNW,334,9.0,13.0,76,0.00,,,0.00,Wunderground v.1.15,2013-02-19 04:42:00,
2013-02-18 22:47:00,21.7,15.3,30.12,NW,317,9.0,13.0,76,0.00,,,0.00,Wunderground v.1.15,2013-02-19 04:47:00,
2013-02-18 22:53:00,21.8,15.4,30.12,NNW,347,8.0,9.0,76,0.00,,,0.00,Wunderground v.1.15,2013-02-19 04:53:00,
2013-02-18 22:59:00,21.8,15.4,30.12,North,360,8.0,11.0,76,0.00,,,0.00,Wunderground v.1.15,2013-02-19 04:59:00,
2013-02-18 23:00:00,21.8,15.4,30.12,NW,315,8.0,8.0,76,0.00,,,0.00,Wunderground v.1.15,2013-02-19 05:00:00,
2013-02-18 23:02:00,21.9,15.5,30.12,NW,325,8.0,9.0,76,0.00,,,0.00,Wunderground v.1.15,2013-02-19 05:02:00,
2013-02-18 23:04:00,21.8,15.4,30.12,NNE,12,8.0,9.0,76,0.00,,,0.00,Wunderground v.1.15,2013-02-19 05:04:00,
2013-02-18 23:10:00,21.9,15.5,30.12,NW,310,9.0,12.0,76,0.00,,,0.00,Wunderground v.1.15,2013-02-19 05:10:00,
2013-02-18 23:18:00,22.1,16.0,30.12,NNW,344,9.0,14.0,77,0.00,,,0.00,weatherlink.com 1.10,2013-02-19 05:18:00,
2013-02-18 23:24:00,22.0,15.6,30.12,North,355,9.0,11.0,76,0.00,,,0.00,Wunderground v.1.15,2013-02-19 05:24:00,
2013-02-18 23:29:00,21.9,15.5,30.12,NW,325,10.0,16.0,76,0.00,,,0.00,Wunderground v.1.15,2013-02-19 05:29:00,
2013-02-18 23:35:00,22.0,15.3,30.12,NNW,345,11.0,16.0,75,0.00,,,0.00,Wunderground v.1.15,2013-02-19 05:35:00,
2013-02-18 23:41:00,21.9,14.9,30.12,NNW,346,12.0,13.0,74,0.00,,,0.00,Wunderground v.1.15,2013-02-19 05:41:00,
2013-02-18 23:47:00,21.8,14.5,30.13,NW,325,14.0,19.0,73,0.00,,,0.00,Wunderground v.1.15,2013-02-19 05:47:00,
2013-02-18 23:53:00,21.6,14.6,30.13,North,349,12.0,17.0,74,0.00,,,0.00,Wunderground v.1.15,2013-02-19 05:53:00,
2013-02-18 23:59:00,20.9,13.9,30.13,NW,318,11.0,17.0,74,0.00,,,0.00,Wunderground v.1.15,2013-02-19 05:59:00,